星链-32660 (STARLINK-32660)

导读

STARLINK-32660是美国SpaceX公司星链星座的成员,于2024年12月4日发射入轨,属于星链低轨卫星互联网项目的组网卫星。星链项目旨在通过近地轨道卫星组网,为全球提供高速低延迟宽带服务,填补偏远地区互联网覆盖空白。该卫星服役后将进一步扩充星链星座规模,提升全球网络覆盖能力与服务稳定性,助力星链实现全球无缝互联的目标。

Basic Information
目录编号:
62205
目录名称:
STARLINK-32660
国际标识:
2024-229P
轨道中心:
EARTH
卫星名称:
星链-32660
卫星全名:
星链-32660 (STARLINK-32660)
卫星状态:
在轨 (已飞行646 天)
发射日期:
2024-12-04 UTC
国别 :
美国 (US)
星等 :
--
This satellite is enrolled in the Space Conjunction Data Service (SCDS) and the current flight risk assessment level is: High Risk
Orbit Information
数据来源 国际轨道数据 AOE轨道数据
星历时间 2026-09-11T10:47:23+0800
15小时前
查看轨道信息
2026-09-05T02:00:00+0800
6天前
查看轨道信息
半长轴 6861.145km 6861.166km
偏心率 0.0001716 0.0001461
轨道倾角 42.998° 43.001°
近地点辐角 283.604° 260.537°
升交点赤经 289.333° 325.289°
平近点角 76.462° 328.797°
近地点 481.83km 482.026km
远地点 484.186km 484.032km
周期 94.266分钟 94.266分钟
每日圈数 15.27594 15.275869
Detailed Information
固有亮度:
5
最大亮度:
2.5
卫星平台:
Starlink V1.0
覆盖范围:
全球
运营商:
太空探索技术公司
运营商所在国:
美国
制造商(研发单位):
太空探索技术公司
制造商所在国:
美国
使用方式:
暂无
Satellite Introduction
Starlink 计划是 SpaceX 推出的全球卫星互联网项目,通过发射低轨道卫星,为全球尤其是偏远地区提供高速、低延迟的互联网服务。自 2019 年起,Starlink 已部署数千颗卫星,旨在缩小全球数字鸿沟,推动互联网普及。该项目还为军事、航空等行业提供通信支持,带来广泛经济效益。
2D Orbit Map
3D Orbit Map
Orbit Altitude Analysis Chart
Orbit Inclination Analysis Chart
Orbit Comprehensive Analysis Chart
View Comprehensive Chart
Conjunction Data List
Event ID Objects TCA Miss Dist (km) Collision Risk Probability Collision Risk Index (CRI) Action
CDM_260910-210405-837206-220522
2026-09-10T
21:04:11+0000
0.428 km
远距离
1.975122E-4 高风险 0.81
CDM_260913-180705-837206-220521
2026-09-13T
18:07:04+0000
0.728 km
远距离
4.864819E-5 中风险 0.69
CDM_260913-163205-837206-220521
2026-09-13T
16:32:55+0000
1.434 km
极远距离
4.959207E-6 低风险 0.49
CDM_260914-030506-220506-386921
2026-09-14T
03:05:04+0000
1.814 km
极远距离
3.33202E-6 低风险 0.45
CDM_260913-194105-837206-220521
2026-09-13T
19:41:13+0000
1.785 km
极远距离
2.550372E-6 低风险 0.43
CDM_260910-193005-837206-220522
2026-09-10T
19:30:02+0000
2.065 km
极远距离
1.753407E-6 低风险 0.4
CDM_260910-223805-837206-220521
2026-09-10T
22:38:20+0000
2.647 km
极远距离
1.086753E-6 低风险 0.36
CDM_260913-145805-837206-220521
2026-09-13T
14:58:45+0000
2.750 km
极远距离
1.0281E-6 低风险 0.35
Miss Distance Evolution Trend with All Objects
Collision Probability Evolution Trend with All Objects